Weather History for Beach, ND

Change the Weather History Date:

Saturday, October 1, 2011

  Actual Average (KGDV) Record (KGDV)
Temperature  
Mean Temperature 66 °F -  
Max Temperature 87 °F 62 °F 91 °F (2005)
Min Temperature 46 °F 35 °F 19 °F (2004)
Cooling Degree Days 2    
Growing Degree Days 16 (Base 50)    
Moisture  
Dew Point 37 °F    
Average Humidity 37    
Maximum Humidity 66    
Minimum Humidity 17    
Precipitation  
Precipitation 0.00 in - - ()
Sea Level Pressure  
Sea Level Pressure 29.95 in    
Wind  
Wind Speed 9 mph (SE)    
Max Wind Speed 14 mph    
Max Gust Speed 18 mph    
Visibility 10 miles    
Events      
Averages and records for this station are not official NWS values.
T = Trace of Precipitation, MM = Missing Value Source: NWS Daily Summary

Daily Weather History Graph

Daily Weather History Graph

Search for Another Location

Airport:

Trip Planner

Search our weather history database for the weather conditions in past years. The results will help you decide how hot, cold, wet, or windy it might be!

Date:

Astronomy

Oct. 01, 2011 Rise Set
Actual Time 6:54 AM MDT 6:36 PM MDT
Civil Twilight 6:24 AM MDT 7:06 PM MDT
Nautical Twilight 5:48 AM MDT 7:41 PM MDT
Astronomical Twilight 5:12 AM MDT 8:17 PM MDT
Moon 12:25 PM MDT (10/1) 9:13 PM MDT (10/1)
Length of Visible Light 12h 42m
Length of Day
11h 41m
Waxing Crescent, 25% of the Moon is Illuminated
Oct 1
Waxing Crescent
Oct 3
First Quarter
Oct 11
Full
Oct 19
Last Quarter
Oct 26
New

Hourly Weather History & Observations

Time (MDT) Temp. Windchill Dew Point Humidity Pressure Visibility Wind Dir Wind Speed Gust Speed Precip Events Conditions
12:15 AM 55.4 °F - 32.0 °F 41% 29.94 in 10.0 mi SSE 11.5 mph - N/A   Clear
12:35 AM 55.4 °F - 32.0 °F 41% 29.94 in 10.0 mi SSE 12.7 mph - N/A   Clear
12:55 AM 55.4 °F - 32.0 °F 41% 29.93 in 10.0 mi South 10.4 mph - N/A   Clear
1:15 AM 53.6 °F - 33.8 °F 47% 29.93 in 10.0 mi South 8.1 mph - N/A   Clear
1:35 AM 53.6 °F - 33.8 °F 47% 29.93 in 10.0 mi South 10.4 mph - N/A   Clear
1:55 AM 51.8 °F - 33.8 °F 50% 29.93 in 10.0 mi South 9.2 mph - N/A   Clear
2:15 AM 51.8 °F - 33.8 °F 50% 29.93 in 10.0 mi South 11.5 mph - N/A   Clear
2:35 AM 53.6 °F - 33.8 °F 47% 29.93 in 10.0 mi South 11.5 mph - N/A   Clear
2:55 AM 53.6 °F - 33.8 °F 47% 29.93 in 10.0 mi South 10.4 mph - N/A   Clear
3:15 AM 51.8 °F - 33.8 °F 50% 29.92 in 10.0 mi South 10.4 mph - N/A   Clear
3:35 AM 50.0 °F - 35.6 °F 58% 29.93 in 10.0 mi South 9.2 mph - N/A   Clear
4:15 AM 48.2 °F - 33.8 °F 58% 29.93 in 10.0 mi South 5.8 mph - N/A   Clear
4:35 AM 48.2 °F - 35.6 °F 62% 29.94 in 10.0 mi South 8.1 mph - N/A   Clear
4:55 AM 48.2 °F - 35.6 °F 62% 29.94 in 10.0 mi South 8.1 mph - N/A   Clear
5:15 AM 48.2 °F - 35.6 °F 62% 29.95 in 10.0 mi South 3.5 mph - N/A   Clear
5:35 AM 46.4 °F 42.9 °F 35.6 °F 66% 29.95 in 10.0 mi South 6.9 mph - N/A   Clear
5:55 AM 48.2 °F - 35.6 °F 62% 29.95 in 10.0 mi SSW 6.9 mph - N/A   Clear
6:15 AM 46.4 °F 42.9 °F 35.6 °F 66% 29.95 in 10.0 mi South 6.9 mph - N/A   Clear
6:35 AM 46.4 °F 45.2 °F 35.6 °F 66% 29.95 in 10.0 mi SSE 3.5 mph - N/A   Clear
6:55 AM 48.2 °F - 35.6 °F 62% 29.96 in 10.0 mi Calm Calm - N/A   Clear
7:15 AM 48.2 °F - 35.6 °F 62% 29.97 in 10.0 mi Calm Calm - N/A   Partly Cloudy
7:35 AM 53.6 °F - 35.6 °F 51% 29.97 in 10.0 mi Calm Calm - N/A   Partly Cloudy
7:55 AM 57.2 °F - 35.6 °F 44% 29.98 in 10.0 mi WSW 3.5 mph - N/A   Clear
8:15 AM 59.0 °F - 39.2 °F 48% 29.98 in 10.0 mi Calm Calm - N/A   Clear
8:35 AM 62.6 °F - 39.2 °F 42% 29.98 in 10.0 mi Calm Calm - N/A   Clear
8:55 AM 66.2 °F - 39.2 °F 37% 29.99 in 10.0 mi West 3.5 mph - N/A   Clear
9:15 AM 68.0 °F - 39.2 °F 35% 29.99 in 10.0 mi Calm Calm - N/A   Clear
9:35 AM 71.6 °F - 37.4 °F 29% 29.99 in 10.0 mi NNW 4.6 mph - N/A   Clear
10:15 AM 73.4 °F - 37.4 °F 27% 29.99 in 10.0 mi NE 6.9 mph - N/A   Clear
10:35 AM 75.2 °F - 37.4 °F 25% 29.99 in 10.0 mi NNE 8.1 mph - N/A   Clear
10:55 AM 78.8 °F - 37.4 °F 23% 29.99 in 10.0 mi NE 11.5 mph - N/A   Clear
11:15 AM 80.6 °F - 37.4 °F 21% 29.99 in 10.0 mi NE 11.5 mph - N/A   Clear
11:35 AM 82.4 °F - 37.4 °F 20% 29.99 in 10.0 mi ENE 9.2 mph - N/A   Clear
11:55 AM 82.4 °F - 37.4 °F 20% 29.99 in 10.0 mi NE 10.4 mph - N/A   Clear
12:15 PM 82.4 °F - 37.4 °F 20% 29.98 in 10.0 mi NE 6.9 mph - N/A   Clear
12:35 PM 84.2 °F - 39.2 °F 20% 29.98 in 10.0 mi ESE 8.1 mph - N/A   Clear
12:55 PM 84.2 °F - 37.4 °F 19% 29.98 in 10.0 mi East 5.8 mph - N/A   Clear
1:15 PM 84.2 °F - 39.2 °F 20% 29.97 in 10.0 mi ESE 8.1 mph - N/A   Clear
1:35 PM 84.2 °F - 37.4 °F 19% 29.96 in 10.0 mi ESE 6.9 mph - N/A   Clear
1:55 PM 86.0 °F - 37.4 °F 18% 29.96 in 10.0 mi East 8.1 mph - N/A   Clear
2:35 PM 87.8 °F - 37.4 °F 17% 29.96 in 10.0 mi ESE 6.9 mph - N/A   Clear
2:55 PM 86.0 °F - 37.4 °F 18% 29.95 in 10.0 mi SSE 8.1 mph - N/A   Clear
3:15 PM 87.8 °F - 37.4 °F 17% 29.95 in 10.0 mi SSE 9.2 mph - N/A   Clear
3:35 PM 87.8 °F - 37.4 °F 17% 29.95 in 10.0 mi SE 9.2 mph - N/A   Clear
3:55 PM 87.8 °F - 37.4 °F 17% 29.94 in 10.0 mi SSE 11.5 mph 16.1 mph N/A   Clear
4:15 PM 86.0 °F - 37.4 °F 18% 29.94 in 10.0 mi ESE 12.7 mph - N/A   Clear
4:35 PM 86.0 °F - 39.2 °F 19% 29.93 in 10.0 mi SE 12.7 mph - N/A   Partly Cloudy
4:55 PM 86.0 °F - 39.2 °F 19% 29.93 in 10.0 mi ESE 12.7 mph - N/A   Partly Cloudy
5:15 PM 86.0 °F - 39.2 °F 19% 29.93 in 10.0 mi SE 13.8 mph 18.4 mph N/A   Partly Cloudy
5:35 PM 82.4 °F - 39.2 °F 21% 29.93 in 10.0 mi SE 12.7 mph - N/A   Partly Cloudy
6:15 PM 77.0 °F - 39.2 °F 26% 29.93 in 10.0 mi SE 10.4 mph - N/A   Partly Cloudy
6:35 PM 73.4 °F - 39.2 °F 29% 29.92 in 10.0 mi ESE 6.9 mph - N/A   Clear
6:55 PM 68.0 °F - 39.2 °F 35% 29.92 in 10.0 mi ESE 8.1 mph - N/A   Clear
7:15 PM 66.2 °F - 39.2 °F 37% 29.92 in 10.0 mi ESE 8.1 mph - N/A   Clear
7:35 PM 64.4 °F - 39.2 °F 40% 29.91 in 10.0 mi ESE 6.9 mph - N/A   Clear
7:55 PM 62.6 °F - 39.2 °F 42% 29.92 in 10.0 mi ESE 8.1 mph - N/A   Clear
8:15 PM 60.8 °F - 39.2 °F 45% 29.92 in 10.0 mi ESE 8.1 mph - N/A   Clear
8:35 PM 66.2 °F - 39.2 °F 37% 29.92 in 10.0 mi SE 9.2 mph - N/A   Clear
8:55 PM 62.6 °F - 39.2 °F 42% 29.92 in 10.0 mi SE 8.1 mph - N/A   Clear
9:15 PM 62.6 °F - 39.2 °F 42% 29.92 in 10.0 mi SSE 10.4 mph - N/A   Clear
9:35 PM 66.2 °F - 37.4 °F 35% 29.92 in 10.0 mi SE 12.7 mph - N/A   Clear
10:15 PM 60.8 °F - 39.2 °F 45% 29.92 in 10.0 mi SSE 11.5 mph - N/A   Clear
10:35 PM 60.8 °F - 39.2 °F 45% 29.91 in 10.0 mi SSE 10.4 mph - N/A   Clear
10:55 PM 59.0 °F - 39.2 °F 48% 29.92 in 10.0 mi SE 10.4 mph - N/A   Clear
11:15 PM 59.0 °F - 37.4 °F 45% 29.92 in 10.0 mi SE 12.7 mph - N/A   Clear
11:55 PM 60.8 °F - 37.4 °F 42% 29.91 in 10.0 mi SE 13.8 mph - N/A   Clear